Location: Newark
(44.6768°N, 22.5302°E)
Time: 15:12:34
(UTC+00:00)

CUTE 1.7 + AOD 2 - Visible Passes

Search period start: 02 July 2022 00:00
Search period end: 12 July 2022 00:00
Orbit: 590 x 608 km, 97.7° (Epoch: 02 July)

Date Brightness Start Highest point End Pass type
(mag) Time Alt. Az. Time Alt. Az. Time Alt. Az.
04 Jul ? 01:07:07 10° ENE 01:08:22 11° E 01:09:37 10° ESE visible
05 Jul ? 01:16:55 10° NE 01:19:18 15° E 01:21:39 10° SE visible
06 Jul ? 01:27:11 10° NE 01:30:12 19° E 01:33:11 10° SE visible
07 Jul ? 01:37:38 10° NE 01:41:05 24° E 01:44:30 10° SSE visible
08 Jul ? 01:48:10 10° NNE 01:51:56 31° E 01:55:40 10° SSE visible
09 Jul ? 01:58:48 10° NNE 02:02:47 41° E 02:06:44 10° S visible
10 Jul ? 02:09:30 10° NNE 02:13:36 54° E 02:17:42 10° S visible
